Location: Izdebno
(52.6670°N, 16.2170°E)
Time: 10:59:20
(UTC+02:00)

A-11 Canister half - Pass Details

Date: 26 February 2024
Orbit: 1513 x 1686 km, 47.2° (Epoch: 24 April)

Event Time Altitude Azimuth Distance (km) Brightness Sun altitude
Exits shadow 05:16:24 19° 264° (W) 3,256 10.0 -14.9°
Maximum altitude 05:24:01 62° 190° (S) 1,802 9.3 -13.8°
Drops below altitude 10° 05:33:31 10° 113° (ESE) 3,802 12.2 -12.3°
Sets 05:36:35 0° 110° (ESE) 4,762 13.0 -11.9°
